This is the latest recevied weather packets stored in our database for station/object KB4KY. If no packets are shown the sender has not sent any weather packets the latest 10 day(s).
| Time | Temp. | Humidity | Pressure | Rain* | Wind** | Luminosity | Snow |
|---|---|---|---|---|---|---|---|
| 1777223396 | 18.33° C | 76% | 1016.1 hPa | 0 mm | - | - | - |
| 1777223097 | 18.33° C | 77% | 1016.2 hPa | 0 mm | - | - | - |
| 1777222796 | 18.33° C | 79% | 1016.3 hPa | 0 mm | - | - | - |
| 1777222499 | 17.78° C | 79% | 1016.4 hPa | 0 mm | - | - | - |
| 1777222195 | 17.78° C | 78% | 1016.6 hPa | 0 mm | - | - | - |
| 1777221895 | 17.22° C | 79% | 1016.6 hPa | 0 mm | - | - | - |
| 1777221594 | 16.67° C | 80% | 1016.6 hPa | 0 mm | - | - | - |
| 1777220695 | 15.56° C | 86% | 1016.7 hPa | 0 mm | - | - | - |
| 1777220394 | 15.56° C | 85% | 1016.8 hPa | 0 mm | - | - | - |
| 1777220094 | 15.56° C | 85% | 1016.8 hPa | 0 mm | - | - | - |
| 1777219792 | 15° C | 88% | 1016.8 hPa | 0 mm | - | - | - |
| 1777219497 | 15° C | 88% | 1016.8 hPa | 0 mm | - | - | - |
| 1777219200 | 15° C | 87% | 1016.9 hPa | 0 mm | - | - | - |
| 1777218893 | 15° C | 87% | 1016.8 hPa | 0 mm | - | - | - |
| 1777218597 | 15° C | 86% | 1016.7 hPa | 0 mm | - | - | - |
| 1777218294 | 15° C | 86% | 1016.8 hPa | 0 mm | - | - | - |
| 1777217992 | 15° C | 87% | 1016.7 hPa | 0 mm | - | - | - |
| 1777217693 | 15° C | 87% | 1016.7 hPa | 0 mm | - | - | - |
| 1777217091 | 14.44° C | 89% | 1016.6 hPa | 0 mm | - | - | - |
| 1777216790 | 14.44° C | 89% | 1016.6 hPa | 0 mm | - | - | - |
| 1777216489 | 14.44° C | 90% | 1016.4 hPa | 0 mm | - | - | - |
| 1777216205 | 14.44° C | 90% | 1016.4 hPa | 0 mm | - | - | - |
| 1777215896 | 14.44° C | 91% | 1016.3 hPa | 0 mm | - | - | - |
| 1777215591 | 14.44° C | 91% | 1016.2 hPa | 0 mm | - | - | - |
| 1777215288 | 14.44° C | 92% | 1016.2 hPa | 0 mm | - | - | - |
* Rain latest hour (hover to see other rain measurements)
** Current wind speed in m/s (hover to see current wind gust speed)